EKRAN 11

Satellite information

Favourite Embed

Satellite Type and Status

PAYLOADIN ORBIT

Key statistics

Satellite EKRAN 11 at a glance.

Uptime

15418

Days in orbit

Revolutions

≈ 1.0

Per day

Orbit

OTHER

Other

Inclination

8.2

Latest

Satellite identification and parameters

Extended collection of information and parameters for EKRAN 11.

Object identification

Identified? True

Debris? False

Object name: EKRAN 11

International designator: 1983-100A

Object number (NORAD): 14377

Object ID (CCSDS): 14377

Country: COMMONWEALTH OF INDEPENDENT STATES (CIS)

Current information (Y/N): Y

RCS size: LARGE

Orbital parameters

Period: 1435.223 minutes

Inclination: 8.1633 deg

SMA: 42147.626 km

Apoapsis: 35790.616 km

Periapsis: 35748.365 km

RAAN: 305.8173 deg

Eccentricy: 0.00050122

Argument of periapsis: 322.7746 deg

Mean anomaly: 37.2245 deg

Mean motion: 1.00332836 rev/day

Mean motion (dot): -0.00000134 rev/day2

B* drag term: 0.0 1/REarth

Two-line elements (TLE)

Creation date: Dec. 14, 2025, 11:30 a.m.

Reference frame: TEME

Reference center: EARTH

Epoch: Dec. 13, 2025, 9:39 a.m. UTC

TLE line 0: 0 EKRAN 11

TLE line 1: 1 14377U 83100A 25347.40231946 -.00000134 00000-0 00000-0 0 9993

TLE line 2: 2 14377 8.1633 305.8173 0005012 322.7746 37.2245 1.00332836 45515

Live tracking on map

Real-time ground track for satellite EKRAN 11.

In-orbit conjunctions

A list of the most updated potential collisions computed for object EKRAN 11.

Target Orbit TCA Probability of collision Miss distance Type
GORIZONT 27 OTHER 2025-11-11 17:08:57 TBA 4600.0 (m) PAYLOAD
COSMOS 1540 OTHER 2024-09-23 15:29:13 TBA 1952.0 (m) PAYLOAD
RADUGA 24 OTHER 2024-07-17 11:21:21 TBA 1080.0 (m) PAYLOAD

Associated space launch

Ekran was a Soviet series of geostationary satellites which were the first in the world to provide Direct-To-Home TV service.

EKRAN 11 was lifted into orbit during the mission ‘Proton-K/DM | Ekran’, on board a Proton-K/DM space rocket.

The launch took place on Sept. 29, 1983, 5:37 p.m. from 200/40.

For more information about the launch, click the button.

Launch to space Proton-K/DM | Ekran
Proton-K/DM | Ekran

Agency: N/A

Status: Launch Successful

Launch date: Sept. 29, 1983, 5:37 p.m. UTC

Rocket: Proton-K/DM

Launch pad: 200/40

Location: Baikonur Cosmodrome, Republic of Kazakhstan

...

Latest news about this satellite

There are no fresh news available about this satellite. Check back as we update our databases every day.


Newsletter sign-up

Weekly statistics, charts and insights to help you stay on top of the space industry.